Showing default

AE1D, 62618

Orbit data source: Space-Track

AE1D, 62618 is a payload satellite owned by ArkEdge (JP) in SSO that was launched on Tue, 14 Jan 2025 UTC via an FALCON 9 launch vehicle from the Air Force Western Test Range (AFWTR). Payload-class satellites include a variety of spacecraft equipped with specific instruments for various scientific and technological missions. These include communications satellites like Starlink; space stations such as the ISS; scientific satellites like the Hubble; Earth observation satellites from companies like Planet Labs, Umbra, and HawkEye 360; GPS; miniature CubeSats for education and research; and military/defense satellites.

Loading next visibility...
Identifier
62618, 2025-009K
Orbit
SSO
Country
Flag of JPJP / JPN
Related business
Manufacturer
ArkEdge
Mission
Operational Commercial Technology
Bus & Motor
CUBESAT 6U, Unknown motor
Mass
~10 kg wet, ~10 kg dry
Launch date (UTC)
2025-01-14 (9 months ago)
Launch vehicle
FALCON 9
Launch site
Air Force Western Test Range (AFWTR)
Object type
Payload
Rocket body
Debris
Shape & HBR
Box + 2 Pan, 0.3 m
Radar Cross Section
0.080 m², Small (<0.1 m²)

Expand to show TLE details & history
Last TLE update: 14 hours ago

TLE from 14 hours ago
0 AE1D
1 62618U 25009K   25300.96308014  .00038440  00000-0  12115-2 0  9991
2 62618  97.4159  21.1580 0005193  80.1011 280.0817 15.32782649 43589
Epoch: 2025-10-27T23:06Z
TLE epoch observation values (Epoch: 2025-10-27T23:06:50.124Z)
Latitude
-0°
Longitude
-2.10824°
Altitude
470.001 km
Speed
7.631 km/s
True Right ascension
01h 24m 37s
True Declination
0° 00' 00"
Sunlit
Object was in full shadow at epoch
Visualization orbit readout
Latitude
Unknown
Longitude
Unknown
Altitude
Unknown
Speed
Unknown
Apparent Right ascension
Unknown
Apparent Declination
Unknown
Sunlit
N/A
Visualization observer readout
Local Sidereal Time
09:03:36
Azimuth
Unknown
Elevation
Unknown
Doppler factor
Unknown
Orbital elements
Apogee altitude
468.017 km
Perigee altitude
460.91 km
Semi-major axis
6,842.601 km
Eccentricity
0.00052
Inclination
97.4159°
RAAN
21.158°
Arg. of periapsis
80.1011°
True anomaly
280.0231°
Mean anomaly
280.0817°
Eccentric anomaly
280.0524°
Mean motion
3.83452 °/min
Orbital period
93.88 mins
BSTAR
0.0012115
Loading maneuver chart data...
Computing Atmospheric mass density...
Loading historical data...
Loading historical data...
Loading historical data...
Loading historical data...
Loading historical data...
Loading historical data...
Loading historical data...

Documentation

Showing up to 5 results
|